Back to catalog

STARLINK-4505

AliveCommunicationsVLEO
NORAD 53556·PAYLOAD·🇺🇸 United States

Launched Aug 19, 2022 from Cape Canaveral Space Force Station

Loading…

Next Passes (next 24 hours)

TLE

FreshSource: CelesTrak SupGP

Epoch: Sep 14, 2026, 20:37 UTC

1 53556C 22101AF  26257.85951389 -.00012505  00000+0 -78422-3 0  2577
2 53556  53.1585 294.2779 0001131  82.7053  59.8003 15.08839861    19

Track STARLINK-4505 in real time with AllMySat

Download on the App Store